Weather in Tasheba

Russia / Republic of Khakassia     53°40′44″N   91°18′14″E
temp.,
°C
wind,
m/s
gust,
m/s
humid.,
%
clouds,
%
prec.,
mm/h
press.,
hPa
HPBL,
m
16 may, sun
sun1601:00+14ssw5116187 0.0 1018300
04:00+13ssw367896 0.5 1017123
07:00+13ssw41072100 0.9 1016283
10:00+15s3667100 0.3 1015176
13:00+19sw795193 0.4 10141121
16:00+23wsw9113853 0.0 10101433
19:00+22wsw81344100 0.0 10081075
22:00+15wsw61281100 5.4 1011531
17 may, mon
mon1701:00+15nnw2383100 6.3 1011121
04:00+13nne2487100 0.8 1012235
07:00+12ne2384100 1.0 1012245
10:00+12nne4581100 1.0 1013389
13:00+12ne2380100 1.4 1013372
16:00+14nw0171100 0.1 1013472
19:00+13nne2476100 0.1 1014284
22:00+12wnw1180100 0.1 101511
18 may, tue
tue1801:00+12ssw2283100 0.1 101346
04:00+11s2390100 0.1 101294
07:00+11s2491100 0.1 1011181
10:00+13s3489100 2.4 1008248
13:00+18wsw71266100 3.3 10051247
16:00+21wsw81359100 0.3 10021579
19:00+14wsw51582100 2.8 1001390
22:00+14w338951 5.9 100245
19 may, wed
wed1901:00+12sw349476 7.9 100273
04:00+12wnw3587100 1.1 100293
07:00+12nne3791100 1.9 1003371
10:00+9n51089100 2.3 1003620
13:00+8nnw6986100 5.9 1004754
16:00+8n3686100 4.8 1005957
19:00+8nnw5978100 8.5 1006885
22:00+7nnw51067100 0.3 1008409
20 may, thu
thu2001:00+6nnw61165100 0.3 1009411
04:00+4nnw61165100 0.0 1011405
07:00+4nnw6962100 0.0 1013617
10:00+6n5645100 0.0 10141950
13:00+5nw2365100 0.4 10151031
16:00+4wnw3577100 3.9 1016686
19:00+7nnw254863 4.0 10161884
22:00+3wnw346698 0.2 101859